Location: Forst
(46.9333°N, 15.4333°E)
Time: 15:38:59
(UTC+00:00)

USA 281 - Pass Details

Date: 01 December 2020
Orbit: 1074 x 1084 km, 106.0° (Epoch: 25 January)

Event Time Altitude Azimuth Distance (km) Brightness Sun altitude
Rises 15:36:16 0° 99° (E) 3,866 5.6 -4.5°
Reaches altitude 10° 15:39:31 10° 82° (E) 2,913 4.9 -5.0°
Maximum altitude 15:43:54 19° 40° (NE) 2,294 4.4 -5.7°
Drops below altitude 10° 15:48:17 10° 358° (N) 2,922 5.3 -6.4°
Sets 15:51:32 0° 342° (NNW) 3,881 6.1 -6.9°
